SDR23NY LEPA-EDDC

Flight info

Callsign SDR23NY
Flight time 2h 6m
Altitude 36000
Route ISTER6B ISTER DCT NIVDA DCT OMEDA DCT RAPUR DCT TORTU DCT ERTEV DCT GOLAS DCT APRIV DCT LAMPO DCT VESAL DCT MOBDO DCT VERDA DCT NEMAL DCT MEDEL DCT APRAQ DCT OKL DCT EVIKU DCT HDO
Aircraft A320/M-SDE3FGHIRWY/LB1

Departure

Time 2026-05-06 15:19
Airport Palma de Mallorca Airport (LEPA)

Arrival

Time 2026-05-06 17:25
Airport Dresden Airport (EDDC)
Time Latitude Longitude Altitude Speed Heading
2026-05-06 14:30 39.54885 2.73795 14 ft 0 kts 248°
2026-05-06 14:33 39.54894 2.73809 34 ft 0 kts 249°
2026-05-06 15:10 39.54902 2.73837 35 ft 4 kts 249°
2026-05-06 15:10 39.54912 2.73870 35 ft 4 kts 249°
2026-05-06 15:10 39.54920 2.73896 35 ft 4 kts 243°
2026-05-06 15:11 39.54935 2.73921 35 ft 4 kts 198°
2026-05-06 15:11 39.54957 2.73917 36 ft 4 kts 149°
2026-05-06 15:11 39.54966 2.73909 31 ft 0 kts 149°
2026-05-06 15:13 39.54957 2.73916 36 ft 4 kts 149°
2026-05-06 15:14 39.54913 2.73951 36 ft 11 kts 149°
2026-05-06 15:14 39.54826 2.73992 36 ft 16 kts 187°
2026-05-06 15:14 39.54733 2.73970 36 ft 11 kts 177°
2026-05-06 15:14 39.54675 2.73893 36 ft 15 kts 238°
2026-05-06 15:15 39.54611 2.73749 35 ft 21 kts 240°
2026-05-06 15:15 39.54534 2.73582 36 ft 20 kts 237°
2026-05-06 15:15 39.54469 2.73451 36 ft 15 kts 237°
2026-05-06 15:15 39.54425 2.73355 35 ft 10 kts 239°
2026-05-06 15:16 39.54387 2.73272 36 ft 12 kts 238°
2026-05-06 15:16 39.54325 2.73147 36 ft 22 kts 238°
2026-05-06 15:16 39.54263 2.73015 36 ft 12 kts 239°
2026-05-06 15:16 39.54226 2.72938 36 ft 8 kts 238°
2026-05-06 15:17 39.54200 2.72903 36 ft 3 kts 205°
2026-05-06 15:17 39.54189 2.72901 36 ft 1 kts 185°
2026-05-06 15:17 39.54156 2.72910 34 ft 9 kts 153°
2026-05-06 15:17 39.54115 2.72999 36 ft 14 kts 111°
2026-05-06 15:18 39.54116 2.73141 37 ft 16 kts 70°
2026-05-06 15:18 39.54169 2.73268 35 ft 18 kts 58°
2026-05-06 15:18 39.54329 2.73602 33 ft 76 kts 59°
2026-05-06 15:18 39.54704 2.74390 37 ft 129 kts 58°
2026-05-06 15:19 39.55252 2.75547 161 ft 160 kts 58°
2026-05-06 15:19 39.55811 2.76765 827 ft 158 kts 59°
2026-05-06 15:19 39.56370 2.78002 1443 ft 160 kts 60°
2026-05-06 15:19 39.56803 2.78951 1867 ft 164 kts 59°
2026-05-06 15:20 39.57437 2.80303 2144 ft 187 kts 59°
2026-05-06 15:20 39.58137 2.81829 2470 ft 208 kts 60°
2026-05-06 15:20 39.58896 2.83504 2928 ft 221 kts 59°
2026-05-06 15:20 39.59672 2.85228 3687 ft 221 kts 60°
2026-05-06 15:21 39.60460 2.86963 4418 ft 225 kts 59°
2026-05-06 15:21 39.61260 2.88719 5130 ft 229 kts 59°
2026-05-06 15:21 39.62085 2.90530 5829 ft 232 kts 58°
2026-05-06 15:21 39.62925 2.92394 6195 ft 254 kts 60°
2026-05-06 15:22 39.63824 2.94479 6614 ft 273 kts 60°
2026-05-06 15:22 39.64776 2.96714 7198 ft 284 kts 60°
2026-05-06 15:22 39.65761 2.98981 7848 ft 293 kts 59°
2026-05-06 15:22 39.66774 3.01271 8707 ft 293 kts 59°
2026-05-06 15:23 39.67783 3.03594 9476 ft 297 kts 60°
2026-05-06 15:23 39.68793 3.05948 10178 ft 303 kts 60°
2026-05-06 15:23 39.69857 3.08433 10417 ft 325 kts 60°
2026-05-06 15:23 39.70999 3.11088 10654 ft 346 kts 60°
2026-05-06 15:24 39.72187 3.13843 11236 ft 354 kts 60°
2026-05-06 15:24 39.73402 3.16666 11967 ft 360 kts 60°
2026-05-06 15:24 39.74633 3.19538 12720 ft 366 kts 60°
2026-05-06 15:24 39.75882 3.22449 13409 ft 371 kts 60°
2026-05-06 15:25 39.77002 3.25497 14001 ft 377 kts 72°
2026-05-06 15:25 39.77532 3.28848 14540 ft 381 kts 83°
2026-05-06 15:25 39.77900 3.32271 15100 ft 385 kts 83°
2026-05-06 15:25 39.78254 3.35747 15659 ft 390 kts 83°
2026-05-06 15:26 39.78598 3.39274 16209 ft 395 kts 84°
2026-05-06 15:26 39.78940 3.42825 16765 ft 398 kts 84°
2026-05-06 15:26 39.79284 3.46415 17308 ft 402 kts 84°
2026-05-06 15:26 39.79639 3.50094 17874 ft 406 kts 84°
2026-05-06 15:27 39.79995 3.53761 18392 ft 410 kts 84°
2026-05-06 15:27 39.80350 3.57413 18858 ft 414 kts 84°
2026-05-06 15:27 39.80713 3.61188 19345 ft 418 kts 84°
2026-05-06 15:27 39.81069 3.64939 19813 ft 421 kts 84°
2026-05-06 15:28 39.81429 3.68749 20306 ft 425 kts 85°
2026-05-06 15:28 39.81789 3.72549 20779 ft 428 kts 85°
2026-05-06 15:28 39.82153 3.76367 21251 ft 432 kts 85°
2026-05-06 15:28 39.82524 3.80261 21724 ft 435 kts 85°
2026-05-06 15:29 39.82897 3.84187 22187 ft 439 kts 85°
2026-05-06 15:29 39.83274 3.88143 22641 ft 443 kts 85°
2026-05-06 15:29 39.83651 3.92143 23084 ft 446 kts 85°
2026-05-06 15:29 39.84028 3.96220 23515 ft 450 kts 85°
2026-05-06 15:30 39.84399 4.00272 23880 ft 453 kts 85°
2026-05-06 15:30 39.84646 4.02969 24113 ft 455 kts 85°
2026-05-06 15:30 39.85024 4.07069 24474 ft 458 kts 86°
2026-05-06 15:30 39.85400 4.11178 24823 ft 460 kts 86°
2026-05-06 15:31 39.85781 4.15343 25173 ft 463 kts 85°
2026-05-06 15:31 39.86385 4.19476 25508 ft 468 kts 74°
2026-05-06 15:31 39.87705 4.23345 25833 ft 472 kts 58°
2026-05-06 15:32 39.92219 4.29506 26455 ft 473 kts 39°
2026-05-06 15:32 39.94711 4.32317 26783 ft 476 kts 38°
2026-05-06 15:32 39.97225 4.35135 27101 ft 478 kts 38°
2026-05-06 15:32 39.99758 4.37976 27414 ft 480 kts 38°
2026-05-06 15:33 40.02329 4.40864 27736 ft 483 kts 38°
2026-05-06 15:33 40.04845 4.43693 28037 ft 485 kts 39°
2026-05-06 15:33 40.07437 4.46621 28331 ft 487 kts 39°
2026-05-06 15:33 40.09998 4.49526 28622 ft 489 kts 39°
2026-05-06 15:34 40.12571 4.52458 28918 ft 491 kts 39°
2026-05-06 15:34 40.15150 4.55406 29194 ft 494 kts 39°
2026-05-06 15:34 40.17730 4.58382 29454 ft 496 kts 39°
2026-05-06 15:34 40.20305 4.61390 29710 ft 498 kts 40°
2026-05-06 15:35 40.22886 4.64417 29964 ft 500 kts 40°
2026-05-06 15:35 40.25480 4.67457 30178 ft 502 kts 40°
2026-05-06 15:35 40.28079 4.70506 30385 ft 503 kts 40°
2026-05-06 15:35 40.30692 4.73576 30592 ft 505 kts 40°
2026-05-06 15:36 40.33307 4.76652 30788 ft 506 kts 40°
2026-05-06 15:36 40.35934 4.79743 31050 ft 506 kts 40°
2026-05-06 15:36 40.38541 4.82810 31334 ft 505 kts 40°
2026-05-06 15:36 40.41158 4.85891 31609 ft 505 kts 40°
2026-05-06 15:37 40.43772 4.88969 31885 ft 504 kts 40°
2026-05-06 15:37 40.46383 4.92041 32160 ft 504 kts 40°
2026-05-06 15:37 40.48997 4.95121 32412 ft 504 kts 40°
2026-05-06 15:37 40.51604 4.98204 32672 ft 504 kts 40°
2026-05-06 15:38 40.54205 5.01286 32942 ft 503 kts 40°
2026-05-06 15:38 40.56834 5.04404 33211 ft 503 kts 40°
2026-05-06 15:38 40.59434 5.07490 33476 ft 503 kts 40°
2026-05-06 15:38 40.62037 5.10583 33738 ft 503 kts 40°
2026-05-06 15:39 40.64628 5.13669 33992 ft 502 kts 40°
2026-05-06 15:39 40.67216 5.16759 34218 ft 502 kts 40°
2026-05-06 15:39 40.69797 5.19844 34429 ft 502 kts 40°
2026-05-06 15:39 40.72393 5.22943 34650 ft 502 kts 40°
2026-05-06 15:40 40.74971 5.26015 34843 ft 502 kts 40°
2026-05-06 15:40 40.77574 5.29120 35052 ft 502 kts 40°
2026-05-06 15:40 40.80159 5.32210 35241 ft 502 kts 40°
2026-05-06 15:40 40.82741 5.35307 35428 ft 502 kts 40°
2026-05-06 15:41 40.85325 5.38407 35608 ft 502 kts 40°
2026-05-06 15:41 40.87909 5.41508 35785 ft 502 kts 40°
2026-05-06 15:41 40.90492 5.44616 35933 ft 503 kts 40°
2026-05-06 15:41 40.93084 5.47736 35964 ft 504 kts 40°
2026-05-06 15:42 40.98265 5.53978 35961 ft 505 kts 40°
2026-05-06 15:42 41.03488 5.60292 35965 ft 505 kts 40°
2026-05-06 15:43 41.08670 5.66569 35959 ft 505 kts 40°
2026-05-06 15:43 41.13864 5.72866 35963 ft 505 kts 40°
2026-05-06 15:44 41.19050 5.79172 35961 ft 505 kts 40°
2026-05-06 15:44 41.24212 5.85476 35961 ft 506 kts 40°
2026-05-06 15:45 41.29402 5.91820 35957 ft 506 kts 40°
2026-05-06 15:45 41.34589 5.98172 35955 ft 507 kts 40°
2026-05-06 15:46 41.39759 6.04519 35957 ft 507 kts 41°
2026-05-06 15:46 41.44984 6.10955 35957 ft 507 kts 41°
2026-05-06 15:47 41.50164 6.17333 35959 ft 507 kts 41°
2026-05-06 15:47 41.55348 6.23737 35960 ft 508 kts 41°
2026-05-06 15:48 41.60563 6.30208 35962 ft 508 kts 41°
2026-05-06 15:48 41.65742 6.36630 35960 ft 508 kts 41°
2026-05-06 15:49 41.70926 6.43065 35958 ft 508 kts 41°
2026-05-06 15:49 41.76093 6.49513 35965 ft 508 kts 41°
2026-05-06 15:50 41.81264 6.55987 35967 ft 509 kts 41°
2026-05-06 15:50 41.86472 6.62510 35962 ft 509 kts 41°
2026-05-06 15:51 41.91637 6.69003 35963 ft 509 kts 41°
2026-05-06 15:51 41.96842 6.75560 35958 ft 509 kts 41°
2026-05-06 15:52 42.02007 6.82056 35958 ft 509 kts 41°
2026-05-06 15:52 42.07179 6.88591 35959 ft 509 kts 42°
2026-05-06 15:53 42.12338 6.95145 35957 ft 509 kts 42°
2026-05-06 15:53 42.17492 7.01708 35965 ft 509 kts 42°
2026-05-06 15:54 42.22641 7.08267 35960 ft 509 kts 42°
2026-05-06 15:54 42.27806 7.14851 35954 ft 509 kts 42°
2026-05-06 15:55 42.32964 7.21455 35948 ft 509 kts 42°
2026-05-06 15:55 42.38137 7.28101 35948 ft 509 kts 42°
2026-05-06 15:56 42.42402 7.33566 35947 ft 509 kts 42°
2026-05-06 15:56 42.47559 7.40209 35930 ft 509 kts 43°
2026-05-06 15:57 42.52687 7.46832 35933 ft 509 kts 43°
2026-05-06 15:57 42.57808 7.53472 35935 ft 509 kts 43°
2026-05-06 15:58 42.62909 7.60098 35927 ft 509 kts 43°
2026-05-06 15:58 42.68045 7.66770 35932 ft 509 kts 43°
2026-05-06 15:59 42.73160 7.73440 35935 ft 510 kts 43°
2026-05-06 15:59 42.78309 7.80168 35933 ft 510 kts 43°
2026-05-06 16:00 42.83416 7.86862 35928 ft 510 kts 43°
2026-05-06 16:00 42.88523 7.93583 35925 ft 510 kts 43°
2026-05-06 16:01 42.93629 8.00311 35924 ft 510 kts 43°
2026-05-06 16:01 42.98768 8.07077 35912 ft 510 kts 43°
2026-05-06 16:02 43.03881 8.13840 35918 ft 511 kts 44°
2026-05-06 16:02 43.08975 8.20602 35920 ft 511 kts 44°
2026-05-06 16:03 43.14067 8.27379 35926 ft 511 kts 44°
2026-05-06 16:03 43.19154 8.34160 35933 ft 511 kts 44°
2026-05-06 16:04 43.24256 8.40975 35926 ft 512 kts 44°
2026-05-06 16:04 43.29375 8.47834 35915 ft 511 kts 44°
2026-05-06 16:05 43.34471 8.54677 35914 ft 511 kts 44°
2026-05-06 16:05 43.39588 8.61563 35909 ft 511 kts 44°
2026-05-06 16:06 43.44662 8.68399 35909 ft 511 kts 44°
2026-05-06 16:06 43.49746 8.75277 35915 ft 511 kts 44°
2026-05-06 16:07 43.54784 8.82250 35911 ft 512 kts 46°
2026-05-06 16:07 43.59648 8.89451 35903 ft 512 kts 46°
2026-05-06 16:08 43.62296 8.92678 35907 ft 509 kts 31°
2026-05-06 16:08 43.65361 8.95274 35893 ft 508 kts 28°
2026-05-06 16:08 43.71439 9.00231 35889 ft 508 kts 28°
2026-05-06 16:09 43.77578 9.05245 35887 ft 509 kts 28°
2026-05-06 16:09 43.83657 9.10235 35890 ft 509 kts 28°
2026-05-06 16:10 43.89800 9.15281 35891 ft 509 kts 28°
2026-05-06 16:10 43.95870 9.20296 35902 ft 509 kts 28°
2026-05-06 16:11 44.02001 9.25386 35896 ft 508 kts 28°
2026-05-06 16:11 44.08053 9.30408 35910 ft 508 kts 28°
2026-05-06 16:12 44.14127 9.35705 35920 ft 508 kts 32°
2026-05-06 16:12 44.19847 9.41484 35920 ft 508 kts 35°
2026-05-06 16:13 44.25524 9.47457 35916 ft 508 kts 35°
2026-05-06 16:13 44.30283 9.52318 35911 ft 507 kts 34°
2026-05-06 16:14 44.36038 9.58053 35909 ft 506 kts 33°
2026-05-06 16:14 44.41755 9.63747 35906 ft 506 kts 34°
2026-05-06 16:15 44.47462 9.69505 35890 ft 505 kts 34°
2026-05-06 16:15 44.53195 9.75339 35880 ft 506 kts 34°
2026-05-06 16:16 44.58854 9.81092 35864 ft 506 kts 34°
2026-05-06 16:16 44.64607 9.86925 35849 ft 507 kts 34°
2026-05-06 16:17 44.70329 9.92753 35844 ft 508 kts 34°
2026-05-06 16:17 44.76108 9.98662 35855 ft 508 kts 34°
2026-05-06 16:18 44.81858 10.04557 35849 ft 507 kts 34°
2026-05-06 16:18 44.87604 10.10469 35846 ft 507 kts 34°
2026-05-06 16:19 44.93301 10.16345 35854 ft 507 kts 34°
2026-05-06 16:19 44.98992 10.22224 35854 ft 507 kts 34°
2026-05-06 16:20 45.04684 10.28108 35860 ft 506 kts 34°
2026-05-06 16:20 45.10381 10.34021 35860 ft 505 kts 34°
2026-05-06 16:21 45.16035 10.39910 35864 ft 505 kts 34°
2026-05-06 16:21 45.21782 10.45900 35862 ft 505 kts 34°
2026-05-06 16:22 45.27447 10.51817 35860 ft 504 kts 34°
2026-05-06 16:22 45.33081 10.57719 35866 ft 504 kts 35°
2026-05-06 16:23 45.38736 10.63665 35883 ft 504 kts 35°
2026-05-06 16:23 45.44366 10.69601 35875 ft 504 kts 35°
2026-05-06 16:24 45.49994 10.75555 35873 ft 504 kts 35°
2026-05-06 16:24 45.55631 10.81525 35879 ft 504 kts 35°
2026-05-06 16:25 45.61251 10.87487 35888 ft 504 kts 35°
2026-05-06 16:25 45.66904 10.93507 35898 ft 503 kts 35°
2026-05-06 16:26 45.72519 10.99502 35898 ft 502 kts 36°
2026-05-06 16:26 45.78099 11.05485 35913 ft 502 kts 36°
2026-05-06 16:27 45.83690 11.11487 35912 ft 501 kts 36°
2026-05-06 16:27 45.89263 11.17477 35922 ft 500 kts 36°
2026-05-06 16:28 45.94797 11.23431 35915 ft 499 kts 36°
2026-05-06 16:28 46.00419 11.29503 35933 ft 499 kts 36°
2026-05-06 16:29 46.06000 11.35556 35928 ft 498 kts 36°
2026-05-06 16:29 46.11513 11.41559 35936 ft 497 kts 36°
2026-05-06 16:30 46.15248 11.45626 35917 ft 497 kts 36°
2026-05-06 16:30 46.22652 11.53701 35887 ft 496 kts 36°
2026-05-06 16:31 46.28150 11.59730 35881 ft 496 kts 36°
2026-05-06 16:31 46.32795 11.64831 35889 ft 495 kts 36°
2026-05-06 16:32 46.38011 11.71297 35872 ft 495 kts 48°
2026-05-06 16:32 46.41986 11.79471 35879 ft 493 kts 57°
2026-05-06 16:33 46.44107 11.83382 35877 ft 493 kts 46°
2026-05-06 16:33 46.46594 11.86782 35875 ft 492 kts 41°
2026-05-06 16:34 46.54244 11.96851 35897 ft 492 kts 42°
2026-05-06 16:34 46.59268 12.03638 35923 ft 492 kts 42°
2026-05-06 16:35 46.64307 12.10461 35948 ft 492 kts 42°
2026-05-06 16:35 46.69324 12.17225 35957 ft 491 kts 42°
2026-05-06 16:36 46.74361 12.24021 35956 ft 491 kts 42°
2026-05-06 16:36 46.79373 12.30818 35956 ft 491 kts 42°
2026-05-06 16:37 46.84350 12.37602 35937 ft 490 kts 42°
2026-05-06 16:37 46.89364 12.44455 35904 ft 490 kts 42°
2026-05-06 16:38 46.94345 12.51254 35873 ft 489 kts 42°
2026-05-06 16:38 46.99344 12.58103 35832 ft 489 kts 42°
2026-05-06 16:39 47.04299 12.64916 35822 ft 489 kts 42°
2026-05-06 16:39 47.09324 12.71846 35809 ft 488 kts 43°
2026-05-06 16:40 47.14259 12.78665 35804 ft 488 kts 43°
2026-05-06 16:40 47.19213 12.85520 35795 ft 488 kts 43°
2026-05-06 16:41 47.24173 12.92404 35790 ft 487 kts 43°
2026-05-06 16:41 47.29093 12.99268 35777 ft 486 kts 43°
2026-05-06 16:42 47.34000 13.06135 35769 ft 486 kts 43°
2026-05-06 16:42 47.38929 13.13035 35762 ft 486 kts 43°
2026-05-06 16:43 47.43836 13.19914 35762 ft 486 kts 43°
2026-05-06 16:43 47.48728 13.26815 35759 ft 486 kts 43°
2026-05-06 16:44 47.54129 13.32833 35746 ft 480 kts 25°
2026-05-06 16:44 47.60317 13.36296 35742 ft 474 kts 13°
2026-05-06 16:45 47.66684 13.38998 35736 ft 474 kts 13°
2026-05-06 16:45 47.73067 13.41749 35732 ft 474 kts 13°
2026-05-06 16:46 47.79402 13.44481 35720 ft 474 kts 13°
2026-05-06 16:46 47.85731 13.47206 35713 ft 474 kts 13°
2026-05-06 16:47 47.91037 13.49501 35702 ft 474 kts 14°
2026-05-06 16:47 47.97272 13.53062 35698 ft 476 kts 19°
2026-05-06 16:48 48.03431 13.56723 35698 ft 476 kts 19°
2026-05-06 16:48 48.09583 13.60378 35692 ft 476 kts 19°
2026-05-06 16:49 48.15788 13.64080 35696 ft 476 kts 19°
2026-05-06 16:49 48.22004 13.67398 35694 ft 473 kts 10°
2026-05-06 16:50 48.28476 13.69363 35696 ft 472 kts
2026-05-06 16:50 48.34962 13.71344 35699 ft 471 kts
2026-05-06 16:51 48.41384 13.73331 35705 ft 471 kts
2026-05-06 16:51 48.47843 13.75325 35707 ft 471 kts
2026-05-06 16:52 48.54270 13.77306 35710 ft 470 kts
2026-05-06 16:52 48.60682 13.79277 35712 ft 470 kts
2026-05-06 16:53 48.67113 13.81275 35722 ft 470 kts
2026-05-06 16:53 48.73515 13.83280 35723 ft 469 kts
2026-05-06 16:54 48.79917 13.85277 35729 ft 469 kts
2026-05-06 16:54 48.86311 13.87269 35729 ft 468 kts
2026-05-06 16:55 48.92796 13.89304 35724 ft 469 kts
2026-05-06 16:55 48.99174 13.91313 35721 ft 469 kts
2026-05-06 16:56 49.05567 13.93325 35730 ft 469 kts
2026-05-06 16:56 49.11958 13.95344 35734 ft 469 kts
2026-05-06 16:57 49.18361 13.97366 35742 ft 469 kts
2026-05-06 16:57 49.24783 13.99402 35741 ft 469 kts
2026-05-06 16:58 49.31178 14.01448 35746 ft 468 kts
2026-05-06 16:58 49.37551 14.03489 35749 ft 468 kts
2026-05-06 16:59 49.43974 14.05537 35751 ft 467 kts
2026-05-06 16:59 49.50331 14.07574 35753 ft 467 kts
2026-05-06 17:00 49.56688 14.09616 35763 ft 467 kts
2026-05-06 17:00 49.63087 14.11678 35752 ft 466 kts
2026-05-06 17:01 49.69439 14.13731 35757 ft 466 kts
2026-05-06 17:01 49.75784 14.15743 35764 ft 466 kts
2026-05-06 17:02 49.82183 14.17772 35773 ft 466 kts
2026-05-06 17:02 49.88540 14.19793 35774 ft 466 kts
2026-05-06 17:03 49.93817 14.21479 35773 ft 466 kts
2026-05-06 17:03 50.00037 14.23475 35660 ft 467 kts
2026-05-06 17:03 50.03258 14.24509 35209 ft 475 kts
2026-05-06 17:04 50.06512 14.25558 34955 ft 469 kts
2026-05-06 17:04 50.08602 14.26373 34788 ft 468 kts 14°
2026-05-06 17:04 50.11710 14.28174 34472 ft 469 kts 22°
2026-05-06 17:04 50.14606 14.30352 33965 ft 469 kts 24°
2026-05-06 17:05 50.17572 14.32590 33327 ft 468 kts 24°
2026-05-06 17:05 50.19692 14.34185 32853 ft 468 kts 24°
2026-05-06 17:05 50.22670 14.36424 32210 ft 470 kts 24°
2026-05-06 17:05 50.25617 14.38631 31607 ft 472 kts 24°
2026-05-06 17:06 50.28588 14.40856 30993 ft 474 kts 24°
2026-05-06 17:06 50.31607 14.43132 30383 ft 477 kts 24°
2026-05-06 17:06 50.34583 14.45390 29802 ft 479 kts 24°
2026-05-06 17:06 50.37585 14.47671 29039 ft 478 kts 24°
2026-05-06 17:07 50.40577 14.49887 28424 ft 470 kts 21°
2026-05-06 17:07 50.43656 14.51475 27962 ft 463 kts 11°
2026-05-06 17:07 50.46859 14.52300 27048 ft 457 kts
2026-05-06 17:07 50.50026 14.52297 26440 ft 443 kts 351°
2026-05-06 17:08 50.53045 14.51606 25823 ft 433 kts 343°
2026-05-06 17:08 50.55965 14.50543 25217 ft 429 kts 342°
2026-05-06 17:08 50.58900 14.49463 24610 ft 425 kts 342°
2026-05-06 17:08 50.61766 14.48403 24017 ft 426 kts 342°
2026-05-06 17:09 50.64668 14.47326 23424 ft 426 kts 342°
2026-05-06 17:09 50.67578 14.46247 22759 ft 425 kts 342°
2026-05-06 17:09 50.70498 14.45168 22196 ft 422 kts 343°
2026-05-06 17:09 50.73347 14.44118 21653 ft 420 kts 343°
2026-05-06 17:10 50.76190 14.43073 21142 ft 417 kts 343°
2026-05-06 17:10 50.78996 14.42034 20642 ft 414 kts 342°
2026-05-06 17:10 50.81822 14.40979 20149 ft 411 kts 342°
2026-05-06 17:10 50.84606 14.39939 19667 ft 408 kts 342°
2026-05-06 17:11 50.87315 14.38741 19198 ft 401 kts 334°
2026-05-06 17:11 50.89756 14.36725 18747 ft 391 kts 320°
2026-05-06 17:11 50.91834 14.33958 18270 ft 381 kts 308°
2026-05-06 17:11 50.93440 14.30709 17761 ft 372 kts 297°
2026-05-06 17:12 50.94580 14.27090 17276 ft 362 kts 285°
2026-05-06 17:12 50.95324 14.23303 16807 ft 357 kts 282°
2026-05-06 17:12 50.95980 14.19748 16357 ft 354 kts 282°
2026-05-06 17:12 50.96667 14.15998 15875 ft 352 kts 282°
2026-05-06 17:13 50.97345 14.12280 15405 ft 350 kts 282°
2026-05-06 17:13 50.98024 14.08545 14893 ft 349 kts 282°
2026-05-06 17:13 50.98708 14.04787 14401 ft 348 kts 282°
2026-05-06 17:13 50.99379 14.01100 13892 ft 347 kts 282°
2026-05-06 17:14 51.00046 13.97416 13375 ft 347 kts 283°
2026-05-06 17:14 51.00715 13.93715 12832 ft 345 kts 283°
2026-05-06 17:14 51.01277 13.90018 12329 ft 340 kts 274°
2026-05-06 17:14 51.01247 13.86265 11817 ft 333 kts 258°
2026-05-06 17:15 51.00599 13.82775 11291 ft 328 kts 244°
2026-05-06 17:15 50.99384 13.79671 10740 ft 325 kts 229°
2026-05-06 17:15 50.97757 13.77212 10388 ft 318 kts 220°
2026-05-06 17:15 50.96116 13.75000 10269 ft 304 kts 220°
2026-05-06 17:16 50.94543 13.72844 10153 ft 292 kts 221°
2026-05-06 17:16 50.93041 13.70770 10023 ft 281 kts 220°
2026-05-06 17:16 50.91564 13.68732 9761 ft 273 kts 220°
2026-05-06 17:16 50.90133 13.66765 9623 ft 272 kts 220°
2026-05-06 17:17 50.88703 13.64808 9440 ft 273 kts 220°
2026-05-06 17:17 50.87756 13.63515 9096 ft 272 kts 220°
2026-05-06 17:17 50.86329 13.61571 8557 ft 269 kts 220°
2026-05-06 17:17 50.85041 13.59435 8038 ft 268 kts 238°
2026-05-06 17:18 50.84474 13.56649 7507 ft 269 kts 265°
2026-05-06 17:18 50.84821 13.53722 6911 ft 275 kts 294°
2026-05-06 17:18 50.85949 13.51287 6316 ft 275 kts 308°
2026-05-06 17:18 50.87192 13.49027 5862 ft 270 kts 309°
2026-05-06 17:19 50.88631 13.47167 5310 ft 270 kts 335°
2026-05-06 17:19 50.90469 13.46683 4783 ft 269 kts
2026-05-06 17:19 50.92140 13.47729 4695 ft 246 kts 37°
2026-05-06 17:19 50.93429 13.49448 4641 ft 241 kts 41°
2026-05-06 17:20 50.94680 13.51148 4564 ft 239 kts 41°
2026-05-06 17:20 50.95960 13.52885 4463 ft 238 kts 41°
2026-05-06 17:20 50.97212 13.54590 4361 ft 234 kts 40°
2026-05-06 17:20 50.98416 13.56231 4272 ft 222 kts 40°
2026-05-06 17:21 50.99569 13.57804 4068 ft 216 kts 40°
2026-05-06 17:21 51.00710 13.59361 3807 ft 215 kts 40°
2026-05-06 17:21 51.01845 13.60911 3521 ft 215 kts 40°
2026-05-06 17:21 51.02964 13.62439 3258 ft 210 kts 40°
2026-05-06 17:22 51.04038 13.63908 2951 ft 196 kts 41°
2026-05-06 17:22 51.05023 13.65255 2699 ft 184 kts 40°
2026-05-06 17:22 51.05976 13.66561 2459 ft 172 kts 40°
2026-05-06 17:22 51.06861 13.67773 2230 ft 162 kts 40°
2026-05-06 17:23 51.07685 13.68903 2015 ft 153 kts 40°
2026-05-06 17:23 51.08467 13.69975 1840 ft 145 kts 40°
2026-05-06 17:23 51.09217 13.71004 1644 ft 141 kts 41°
2026-05-06 17:23 51.09956 13.72018 1451 ft 139 kts 41°
2026-05-06 17:24 51.10694 13.73031 1258 ft 138 kts 40°
2026-05-06 17:24 51.11411 13.74015 1090 ft 138 kts 39°
2026-05-06 17:24 51.12144 13.75035 910 ft 139 kts 40°
2026-05-06 17:24 51.12870 13.76025 762 ft 129 kts 39°
2026-05-06 17:25 51.13445 13.76809 740 ft 82 kts 41°
2026-05-06 17:25 51.13714 13.77183 729 ft 33 kts 41°
2026-05-06 17:25 51.13876 13.77405 722 ft 19 kts 39°
2026-05-06 17:25 51.13893 13.77536 721 ft 12 kts 129°
2026-05-06 17:26 51.13862 13.77585 718 ft 6 kts 134°
2026-05-06 17:26 51.13827 13.77643 719 ft 9 kts 134°
2026-05-06 17:26 51.13777 13.77717 715 ft 10 kts 166°
2026-05-06 17:26 51.13724 13.77680 723 ft 7 kts 220°
2026-05-06 17:27 51.13697 13.77643 718 ft 5 kts 220°
2026-05-06 17:27 51.13640 13.77560 722 ft 17 kts 222°
2026-05-06 17:27 51.13541 13.77428 724 ft 15 kts 223°
2026-05-06 17:27 51.13483 13.77341 729 ft 8 kts 220°
2026-05-06 17:28 51.13420 13.77259 734 ft 17 kts 219°
2026-05-06 17:28 51.13345 13.77156 739 ft 11 kts 222°
2026-05-06 17:28 51.13268 13.77049 745 ft 8 kts 219°
2026-05-06 17:28 51.13250 13.77027 744 ft 0 kts 218°
2026-05-06 17:29 51.13248 13.77024 744 ft 3 kts 218°
2026-05-06 17:29 51.13198 13.77053 746 ft 9 kts 134°
2026-05-06 17:29 51.13129 13.77055 751 ft 16 kts 219°
2026-05-06 17:29 51.13026 13.76916 752 ft 14 kts 221°
2026-05-06 17:30 51.12964 13.76827 751 ft 11 kts 222°
2026-05-06 17:30 51.12912 13.76754 749 ft 9 kts 221°
2026-05-06 17:30 51.12869 13.76695 753 ft 9 kts 221°
2026-05-06 17:30 51.12814 13.76619 751 ft 8 kts 220°
2026-05-06 17:31 51.12812 13.76616 751 ft 0 kts 220°
2026-05-06 17:31 51.12787 13.76584 750 ft 9 kts 219°
2026-05-06 17:31 51.12754 13.76540 752 ft 10 kts 219°
2026-05-06 17:31 51.12702 13.76571 750 ft 8 kts 133°
2026-05-06 17:32 51.12666 13.76628 753 ft 7 kts 134°
2026-05-06 17:32 51.12641 13.76677 749 ft 6 kts 129°
2026-05-06 17:32 51.12617 13.76719 752 ft 4 kts 146°
2026-05-06 17:32 51.12610 13.76720 752 ft 1 kts 177°
2026-05-06 17:33 51.12598 13.76711 751 ft 2 kts 210°
2026-05-06 17:33 51.12585 13.76695 753 ft 3 kts 218°
2026-05-06 17:33 51.12575 13.76683 748 ft 2 kts 220°
2026-05-06 17:33 51.12568 13.76672 748 ft 0 kts 221°